Location: Bangkok
(13.7500°N, 100.5170°E)
Time: 16:20:26
(UTC+07:00)

Hubble Space Telescope - Visible Passes

Search period start: 27 June 2016 00:00
Search period end: 07 July 2016 00:00
Orbit: 539 x 543 km, 28.5° (Epoch: 26 June)

Date Brightness Start Highest point End Pass type
(mag) Time Alt. Az. Time Alt. Az. Time Alt. Az.
27 Jun 3.8 03:06:28 14° NE 03:06:28 14° NE 03:07:34 10° ENE visible
27 Jun 1.2 04:42:05 10° WNW 04:46:12 64° NNE 04:50:19 10° ESE visible
27 Jun 0.6 20:03:24 10° WSW 20:07:31 72° SSE 20:09:18 32° ENE visible
28 Jun 0.7 04:33:56 22° WNW 04:36:32 89° NNE 04:40:41 10° ESE visible
28 Jun 0.8 19:53:42 10° WSW 19:57:50 82° NNW 20:01:23 14° ENE visible
28 Jun 3.9 21:36:09 10° WNW 21:36:51 13° WNW 21:36:51 13° WNW visible
29 Jun 0.7 04:26:08 53° W 04:26:51 65° SSW 04:30:57 10° SE visible
29 Jun 1.3 19:44:06 10° WSW 19:48:10 58° NNW 19:52:15 10° NE visible
29 Jun 3.6 21:26:57 10° WNW 21:28:42 16° NW 21:28:42 16° NW visible
30 Jun 1.7 04:18:25 33° SSE 04:18:25 33° SSE 04:21:07 10° SE visible
30 Jun 2.0 19:34:34 10° W 19:38:31 43° NNW 19:42:28 10° NE visible
30 Jun 3.5 21:17:50 10° NW 21:20:13 15° NNW 21:20:18 15° NNW visible
01 Jul 3.2 04:10:43 12° SSE 04:10:43 12° SSE 04:11:09 10° SE visible
01 Jul 2.5 19:25:09 10° W 19:28:53 33° NNW 19:32:38 10° NE visible
01 Jul 3.6 21:08:46 10° NW 21:10:42 13° N 21:11:39 12° N visible
02 Jul 2.9 19:15:48 10° WNW 19:19:17 26° NNW 19:22:46 10° NE visible
02 Jul 3.7 20:59:44 10° NNW 21:01:12 12° N 21:02:40 10° NNE visible
03 Jul 3.2 19:06:32 10° WNW 19:09:42 21° NNW 19:12:52 10° NNE visible
03 Jul 3.7 20:50:46 10° NNW 20:51:43 11° N 20:52:40 10° N visible
04 Jul 3.8 20:41:53 10° N 20:42:14 10° N 20:42:36 10° N visible
06 Jul 3.7 20:22:52 10° N 20:23:18 10° N 20:23:43 10° N visible
